Hourly Data Report for December 22, 2020

FORT GOOD HOPE CS
NORTHWEST TERRITORIES
Current Station Operator: ECCC - MSC

66°14'32.044" N
128°38'39.081" W
81.70 m
2201450
71491
ZGH

Download Data

Hourly Data (December 2020)
Hourly Data Report for December 22, 2020
TIME
LST
Temp Definition
°C
Dew Point Definition
°C
Rel Hum Definition
%
Precip. Amount Definition
mm

Wind Dir Definition
10's deg

Wind Spd Definition
km/h
Visibility Definition
km
Stn Press Definition
kPa
Hmdx Definition


Wind Chill Definition


Weather Definition


00:00 -35.9 -39.6 68 0.0 8 3   100.49   -40 LegendNANA
01:00 -36.3 -40.0 68 0.0 10 6   100.50   -44 LegendNANA
02:00 -36.3 -40.1 68 0.0 9 3   100.46   -40 LegendNANA
03:00 -35.3 -39.0 69 0.0 11 4   100.47   -40 LegendNANA
04:00 -34.0 -37.6 70 0.0 9 4   100.51   -39 LegendNANA
05:00 -33.6 -37.2 70 0.0 10 6   100.46   -41 LegendNANA
06:00 -33.7 -37.3 70 0.0 9 6   100.43   -41 LegendNANA
07:00 -33.3 -36.9 70 0.0 10 5   100.43   -39 LegendNANA
08:00 -33.1 -36.6 70 0.0 10 7   100.37   -41 LegendNANA
09:00 -33.2 -36.8 70 0.0 11 5   100.34   -39 LegendNANA
10:00 -32.1 -35.5 71 0.0 10 6   100.27   -39 LegendNANA
11:00 -32.0 -35.5 71 0.0 10 5   100.28   -38 LegendNANA
12:00 -31.5 -34.9 72 0.0 10 5   100.27   -37 LegendNANA
13:00 -30.9 -34.3 72 0.0 10 5   100.23   -37 LegendNANA
14:00 -30.7 -34.0 72 0.0 12 4   100.22   -35 LegendNANA
15:00 -29.8 -33.2 73 0.0 10 5   100.17   -35 LegendNANA
16:00 -29.4 -32.6 73 0.0 7 4   100.13   -34 LegendNANA
17:00 -28.7 -31.9 74 0.0 6 4   100.05   -33 LegendNANA
18:00 -27.9 -31.1 74 0.0 6 2   100.03   -30 LegendNANA
19:00 -27.4 -30.5 75 0.0 7 5   99.97   -33 LegendNANA
20:00 -26.5 -29.6 75 0.0 7 6   99.92   -32 LegendNANA
21:00 -26.4 -29.5 75 0.0 7 5   99.93   -32 LegendNANA
22:00 -26.1 -29.1 76 0.0 6 5   99.78   -31 LegendNANA
23:00 -25.2 -28.2 76 0.0 7 8   99.68   -32 LegendNANA

Notes on Data Quality.

Legend

  • E = Estimated
  • M = Missing
  • NA = Not Available*
  • [empty] = Indicates an unobserved value
Date modified: